Regional Weather Roundup
Issued by NWS

Home | Current Version | Previous Version | Graphics & Text | Print | Product List | Glossary Off
Versions: 1 2 3 4 5 6 7 8 9 10 11 12 13 14 15 16 17 18 19 20 21 22 23 24 25 26 27 28 29 30 31 32 33 34 35 36 37 38 39 40 41 42 43 44 45 46 47 48 49 50

000
ASUS43 KMKX 250611
RWRWI

WISCONSIN REGIONAL WEATHER ROUNDUP
NATIONAL WEATHER SERVICE MILWAUKEE/SULLIVAN WI
100 AM CDT SAT OCT 25 2014

NOTE: "FAIR" INDICATES FEW OR NO CLOUDS BELOW 12,000 FEET WITH NO
SIGNIFICANT WEATHER AND/OR OBSTRUCTIONS TO VISIBILITY.

WIZ001-002-006>008-014>016-023>028-250700-
NORTHWEST WISCONSIN

CITY           SKY/WX    TMP DP  RH WIND       PRES   REMARKS
SUPERIOR ARPT  CLEAR     51  43  73 SW8       29.80R
6HR MIN TEMP:  51; 6HR MAX TEMP:  62;

ASHLAND        PTCLDY    54  48  80 SW9       29.78S
6HR MIN TEMP:  54; 6HR MAX TEMP:  57;

HAYWARD        PTCLDY    54  49  83 VRB3      29.82R
6HR MIN TEMP:  50; 6HR MAX TEMP:  57;

SIREN          CLEAR     53  44  69 W7        29.87R
6HR MIN TEMP:  53; 6HR MAX TEMP:  57;

CUMBERLAND     PTCLDY    50  46  87 W8        29.86R
RICE LAKE      FOG       47  46  96 CALM      29.86S VSB<1/4
6HR MIN TEMP:  46; 6HR MAX TEMP:  56;

CHETEK         FOG       51  51  99 CALM      29.85R VSB 1
6HR MIN TEMP:  51; 6HR MAX TEMP:  56;

LADYSMITH      CLOUDY    55  54  96 SW5       29.86R FOG
6HR MIN TEMP:  55; 6HR MAX TEMP:  57;

EAU CLAIRE     FOG       49  48  97 SW6       29.85R VSB 1/4
6HR MIN TEMP:  48; 6HR MAX TEMP:  57;

MENOMONIE      PTCLDY    52  51  99 W8        29.87R
NEW RICHMOND   CLEAR     51  47  88 W8        29.88R
6HR MIN TEMP:  50; 6HR MAX TEMP:  54;

OSCEOLA        CLEAR     54  47  79 W8        29.91R
6HR MIN TEMP:  48; 6HR MAX TEMP:  56;

$$

WIZ003>005-009-010-017-018-250700-
NORTH CENTRAL WISCONSIN

CITY           SKY/WX    TMP DP  RH WIND       PRES   REMARKS
MANITOWISH WTR PTCLDY    51  51 100 W8        29.79S FOG
6HR MIN TEMP:  51; 6HR MAX TEMP:  56;

ARBOR VITAE    CLEAR     53  51  94 W6        29.80R FOG
6HR MIN TEMP:  52; 6HR MAX TEMP:  57;

WOODRUFF       CLEAR     53  51  94 W6        29.80R FOG
6HR MIN TEMP:  52; 6HR MAX TEMP:  57;

RHINELANDER    CLOUDY    53  51  93 W10       29.81F
6HR MIN TEMP:  53; 6HR MAX TEMP:  54;

EAGLE RIVER    CLEAR     51  51  97 SW9       29.78S
6HR MIN TEMP:  50; 6HR MAX TEMP:  55;

LAND O LAKES   CLEAR     52  50  93 SW6       29.79R
6HR MIN TEMP:  52; 6HR MAX TEMP:  57;

PHILLIPS       PTCLDY    53  51  95 SW8       29.81S FOG
6HR MIN TEMP:  53; 6HR MAX TEMP:  55;

TOMAHAWK       PTCLDY    53  51  92 SW3       29.82S FOG
6HR MIN TEMP:  53; 6HR MAX TEMP:  55;

MEDFORD        CLOUDY    54  53  97 W7        29.83F FOG
6HR MIN TEMP:  53; 6HR MAX TEMP:  55;

MERRILL        CLOUDY    55  54  94 W13       29.82F FOG
6HR MIN TEMP:  55; 6HR MAX TEMP:  56;

$$

WIZ029-030-035-036-043>047-250700-
CENTRAL WISCONSIN

CITY           SKY/WX    TMP DP  RH WIND       PRES   REMARKS
WAUSAU         CLOUDY    55  53  93 W9        29.82S
6HR MIN TEMP:  55; 6HR MAX TEMP:  57;

MOSINEE        CLOUDY    54  54 100 W8        29.84F FOG
MARSHFIELD     CLOUDY    56  54  93 W8        29.85S FOG
6HR MIN TEMP:  56; 6HR MAX TEMP:  58;

STEVENS POINT  CLOUDY    55  53  94 W8        29.85R
6HR MIN TEMP:  54; 6HR MAX TEMP:  55; 6HR PCP:  0.02;

WAUPACA        CLOUDY    59  56  91 W9        29.84S
6HR MIN TEMP:  54; 6HR MAX TEMP:  59;

WAUTOMA        CLOUDY    55  54  97 W8        29.86R FOG
6HR MIN TEMP:  54; 6HR MAX TEMP:  58;

WISC RAPIDS    CLOUDY    55  54  96 W6        29.87S FOG
6HR MIN TEMP:  55; 6HR MAX TEMP:  57;

CAMP DOUGLAS   NOT AVBL
$$

WIZ011>013-019>022-031-037>040-048>050-250700-
NORTHEAST WISCONSIN

CITY           SKY/WX    TMP DP  RH WIND       PRES   REMARKS
ANTIGO         CLOUDY    54  52  94 W12       29.82S
6HR MIN TEMP:  51; 6HR MAX TEMP:  54;

SHAWANO        CLOUDY    56  53  89 SW6       29.80F
6HR MIN TEMP:  53; 6HR MAX TEMP:  56;

OCONTO         CLOUDY    54  53  95 SW6       29.79F
6HR MIN TEMP:  49; 6HR MAX TEMP:  54;

STURGEON BAY   CLOUDY    54  48  82 SW7       29.80F
6HR MIN TEMP:  48; 6HR MAX TEMP:  54;

GREEN BAY      PTCLDY    52  50  93 SW5       29.82F
6HR MIN TEMP:  50; 6HR MAX TEMP:  55;

MANITOWOC      MOCLDY    52  50  93 S7        29.84F
6HR MIN TEMP:  50; 6HR MAX TEMP:  53;

APPLETON       CLOUDY    55  52  88 W13       29.83F
CLINTONVILLE   CLOUDY    55  54  94 W7        29.81F
OSHKOSH        CLOUDY    56  52  86 SW5       29.84F
6HR MIN TEMP:  54; 6HR MAX TEMP:  56;

$$

WIZ032>034-041-042-053>061-250700-
SOUTHWEST WISCONSIN

CITY           SKY/WX    TMP DP  RH WIND       PRES   REMARKS
LA CROSSE      PTCLDY    56  54  93 S6        29.89S FOG
6HR MIN TEMP:  56; 6HR MAX TEMP:  60;

SPARTA         CLOUDY    57  55  94 SW3       29.89S FOG
6HR MIN TEMP:  49; 6HR MAX TEMP:  59;

VIROQUA        CLOUDY    57  57 100 W8        29.91R
6HR MIN TEMP:  55; 6HR MAX TEMP:  57;

BOSCOBEL       CLOUDY    60  57  89 SW7       29.91S FOG
6HR MIN TEMP:  58; 6HR MAX TEMP:  60;

PRAIRIE DU CHI CLOUDY    60  57  89 W5        29.92S FOG
6HR MIN TEMP:  59; 6HR MAX TEMP:  60;

PLATTEVILLE    CLOUDY    58  57  98 W8        29.94R VSB 1/2
6HR MIN TEMP:  55; 6HR MAX TEMP:  60;

$$

WIZ056-057-062-063-064-067-068-250700-
SOUTH CENTRAL WISCONSIN

CITY           SKY/WX    TMP DP  RH WIND       PRES   REMARKS
REEDSBURG      CLOUDY    58  56  92 W7        29.88F FOG
6HR MIN TEMP:  56; 6HR MAX TEMP:  59;

BARABOO/DELLS  CLOUDY    57  54  89 W8        29.88S FOG
6HR MIN TEMP:  56; 6HR MAX TEMP:  59;

LONE ROCK      CLOUDY    60  55  83 W6        29.90F HAZE
6HR MIN TEMP:  54; 6HR MAX TEMP:  64;

MINERAL POINT  CLOUDY    59  57  94 W8        29.92R FOG
MADISON        PTCLDY    54  52  93 CALM      29.89S FOG
6HR MIN TEMP:  54; 6HR MAX TEMP:  60;

MIDDLETON      MOCLDY    56  55  99 W5        29.89S
6HR MIN TEMP:  55; 6HR MAX TEMP:  60;

WATERTOWN      MOCLDY    52  51  95 SW3       29.87F
6HR MIN TEMP:  52; 6HR MAX TEMP:  55;

MONROE         CLOUDY    55  54  94 SW7       29.90F FOG
JANESVILLE     MOCLDY    55  50  82 SW5       29.89F
$$

WIZ051-052-058>065-066-070>072-250700-
SOUTHEAST WISCONSIN

CITY           SKY/WX    TMP DP  RH WIND       PRES   REMARKS
MILWAUKEE      CLOUDY    55  48  77 SW8       29.88F
6HR MIN TEMP:  53; 6HR MAX TEMP:  57; 6HR PCP: TRACE;

WAUKESHA       MOCLDY    52  46  82 S6        29.88F
MILWAUKEE/TIMM CLOUDY    54  45  71 SW7       29.87F
RACINE         MOCLDY    56  48  74 SW7       29.89F
6HR MIN TEMP:  52; 6HR MAX TEMP:  57;

BURLINGTON     MOCLDY    51  47  88 SW6       29.88F
6HR MIN TEMP:  50; 6HR MAX TEMP:  54;

KENOSHA        CLOUDY    57  49  74 SW8       29.89F
6HR MIN TEMP:  51; 6HR MAX TEMP:  57; 6HR PCP:  0.01;

FOND DU LAC    MOCLDY    52  49  89 SW8       29.85F
6HR MIN TEMP:  52; 6HR MAX TEMP:  58;

SHEBOYGAN      MOCLDY    50  47  89 S5        29.84F
6HR MIN TEMP:  48; 6HR MAX TEMP:  54; 6HR PCP: TRACE;

WEST BEND      MOCLDY    54  46  76 SW7       29.85F
JUNEAU         PTCLDY    49  47  95 S7        29.87F FOG
6HR MIN TEMP:  49; 6HR MAX TEMP:  55;

$$

LSZ147-162-250700-
LAKE SUPERIOR

STATION/POSITION TIME  TEMP    WIND        PRES    WAVE
                       AIR SEA DIR/SP/G            HT/PER
                 (UTC) (F)     (DEG/KT/KT) (MB)    (FT/S)
W MID LAKE BUOY  0550   52 46  240/ 19/ 21 1004.4R   4/ 5
DEVILS ISLAND    0600   54     250/ 19/ 22 1006.8R
PORT WING        0500   60     220/  8/ 11 1007.8R
SAXON HARBOR     0500   61     270/  9/ 16 1007.8
$$

LMZ867-665-643>646-250700-
LAKE MICHIGAN

STATION/POSITION TIME  TEMP    WIND        PRES    WAVE
                       AIR SEA DIR/SP/G            HT/PER



USA.gov is the U.S. government's official web portal to all federal, state and local government web resources and services.